Year,Month,Day,Hour,Minute,Value (Times are PST for temperature in C)
2020,05,10,00,00,12.10
2020,05,10,00,01,12.10
2020,05,10,00,02,12.10
2020,05,10,00,03,12.10
2020,05,10,00,04,12.10
2020,05,10,00,05,12.00
2020,05,10,00,06,12.00
2020,05,10,00,07,12.00
2020,05,10,00,08,12.00
2020,05,10,00,09,12.00
2020,05,10,00,10,12.00
2020,05,10,00,11,11.90
2020,05,10,00,12,11.90
2020,05,10,00,13,11.90
2020,05,10,00,14,11.90
2020,05,10,00,15,11.90
2020,05,10,00,16,11.90
2020,05,10,00,17,11.90
2020,05,10,00,18,11.90
2020,05,10,00,19,11.80
2020,05,10,00,20,11.80
2020,05,10,00,21,11.80
2020,05,10,00,22,11.80
2020,05,10,00,23,11.80
2020,05,10,00,24,11.80
2020,05,10,00,25,11.80
2020,05,10,00,26,11.80
2020,05,10,00,27,11.70
2020,05,10,00,28,11.70
2020,05,10,00,29,11.70
2020,05,10,00,30,11.70
2020,05,10,00,31,11.70
2020,05,10,00,32,11.70
2020,05,10,00,33,11.70
2020,05,10,00,34,11.60
2020,05,10,00,35,11.60
2020,05,10,00,36,11.60
2020,05,10,00,37,11.60
2020,05,10,00,38,11.60
2020,05,10,00,39,11.50
2020,05,10,00,40,11.50
2020,05,10,00,41,11.50
2020,05,10,00,42,11.50
2020,05,10,00,43,11.40
2020,05,10,00,44,11.40
2020,05,10,00,45,11.50
2020,05,10,00,46,11.40
2020,05,10,00,47,11.40
2020,05,10,00,48,11.40
2020,05,10,00,49,11.40
2020,05,10,00,50,11.40
2020,05,10,00,51,11.40
2020,05,10,00,52,11.40
2020,05,10,00,53,11.30
2020,05,10,00,54,11.30
2020,05,10,00,55,11.30
2020,05,10,00,56,11.30
2020,05,10,00,57,11.30
2020,05,10,00,58,11.30
2020,05,10,00,59,11.30
2020,05,10,01,00,11.30
2020,05,10,01,01,11.30
2020,05,10,01,02,11.30
2020,05,10,01,03,11.20
2020,05,10,01,04,11.20
2020,05,10,01,05,11.20
2020,05,10,01,06,11.20
2020,05,10,01,07,11.20
2020,05,10,01,08,11.20
2020,05,10,01,09,11.20
2020,05,10,01,10,11.20
2020,05,10,01,11,11.20
2020,05,10,01,12,11.20
2020,05,10,01,13,11.20
2020,05,10,01,14,11.20
2020,05,10,01,15,11.20
2020,05,10,01,16,11.20
2020,05,10,01,17,11.20
2020,05,10,01,18,11.10
2020,05,10,01,19,11.10
2020,05,10,01,20,11.10
2020,05,10,01,21,11.10
2020,05,10,01,22,11.10
2020,05,10,01,23,11.10
2020,05,10,01,24,11.10
2020,05,10,01,25,11.10
2020,05,10,01,26,11.10
2020,05,10,01,27,11.10
2020,05,10,01,28,11.10
2020,05,10,01,29,11.10
2020,05,10,01,30,11.00
2020,05,10,01,31,11.00
2020,05,10,01,32,11.00
2020,05,10,01,33,10.90
2020,05,10,01,34,10.90
2020,05,10,01,35,10.90
2020,05,10,01,36,10.80
2020,05,10,01,37,10.80
2020,05,10,01,38,10.80
2020,05,10,01,39,10.80
2020,05,10,01,40,10.80
2020,05,10,01,41,10.80
2020,05,10,01,42,10.80
2020,05,10,01,43,10.80
2020,05,10,01,44,10.80
2020,05,10,01,45,10.80
2020,05,10,01,46,10.80
2020,05,10,01,47,10.70
2020,05,10,01,48,10.70
2020,05,10,01,49,10.70
2020,05,10,01,50,10.70
2020,05,10,01,51,10.70
2020,05,10,01,52,10.70
2020,05,10,01,53,10.70
2020,05,10,01,54,10.70
2020,05,10,01,55,10.70
2020,05,10,01,56,10.70
2020,05,10,01,57,10.60
2020,05,10,01,58,10.60
2020,05,10,01,59,10.60
2020,05,10,02,00,10.60
2020,05,10,02,01,10.60
2020,05,10,02,02,10.60
2020,05,10,02,03,10.60
2020,05,10,02,04,10.60
2020,05,10,02,05,10.60
2020,05,10,02,06,10.60
2020,05,10,02,07,10.60
2020,05,10,02,08,10.60
2020,05,10,02,09,10.60
2020,05,10,02,10,10.60
2020,05,10,02,11,10.60
2020,05,10,02,12,10.60
2020,05,10,02,13,10.60
2020,05,10,02,14,10.60
2020,05,10,02,15,10.60
2020,05,10,02,16,10.70
2020,05,10,02,17,10.70
2020,05,10,02,18,10.70
2020,05,10,02,19,10.70
2020,05,10,02,20,10.70
2020,05,10,02,21,10.70
2020,05,10,02,22,10.70
2020,05,10,02,23,10.70
2020,05,10,02,24,10.70
2020,05,10,02,25,10.70
2020,05,10,02,26,10.70
2020,05,10,02,27,10.70
2020,05,10,02,28,10.60
2020,05,10,02,29,10.60
2020,05,10,02,30,10.60
2020,05,10,02,31,10.60
2020,05,10,02,32,10.60
2020,05,10,02,33,10.60
2020,05,10,02,34,10.50
2020,05,10,02,35,10.50
2020,05,10,02,36,10.50
2020,05,10,02,37,10.50
2020,05,10,02,38,10.50
2020,05,10,02,39,10.40
2020,05,10,02,40,10.40
2020,05,10,02,41,10.40
2020,05,10,02,42,10.40
2020,05,10,02,43,10.40
2020,05,10,02,44,10.40
2020,05,10,02,45,10.40
2020,05,10,02,46,10.40
2020,05,10,02,47,10.40
2020,05,10,02,48,10.50
2020,05,10,02,49,10.50
2020,05,10,02,50,10.50
2020,05,10,02,51,10.50
2020,05,10,02,52,10.50
2020,05,10,02,53,10.50
2020,05,10,02,54,10.50
2020,05,10,02,55,10.40
2020,05,10,02,56,10.40
2020,05,10,02,57,10.40
2020,05,10,02,58,10.40
2020,05,10,02,59,10.40
2020,05,10,03,00,10.40
2020,05,10,03,01,10.40
2020,05,10,03,02,10.40
2020,05,10,03,03,10.40
2020,05,10,03,04,10.30
2020,05,10,03,05,10.30
2020,05,10,03,06,10.30
2020,05,10,03,07,10.30
2020,05,10,03,08,10.30
2020,05,10,03,09,10.30
2020,05,10,03,10,10.30
2020,05,10,03,11,10.30
2020,05,10,03,12,10.30
2020,05,10,03,13,10.30
2020,05,10,03,14,10.30
2020,05,10,03,15,10.30
2020,05,10,03,16,10.20
2020,05,10,03,17,10.20
2020,05,10,03,18,10.20
2020,05,10,03,19,10.20
2020,05,10,03,20,10.20
2020,05,10,03,21,10.20
2020,05,10,03,22,10.20
2020,05,10,03,23,10.10
2020,05,10,03,24,10.10
2020,05,10,03,25,10.10
2020,05,10,03,26,10.10
2020,05,10,03,27,10.00
2020,05,10,03,28,10.00
2020,05,10,03,29,10.00
2020,05,10,03,30,9.90
2020,05,10,03,31,9.90
2020,05,10,03,32,9.90
2020,05,10,03,33,9.90
2020,05,10,03,34,9.90
2020,05,10,03,35,9.90
2020,05,10,03,36,9.90
2020,05,10,03,37,9.90
2020,05,10,03,38,9.90
2020,05,10,03,39,9.90
2020,05,10,03,40,9.90
2020,05,10,03,41,9.90
2020,05,10,03,42,9.90
2020,05,10,03,43,9.90
2020,05,10,03,44,9.90
2020,05,10,03,45,9.90
2020,05,10,03,46,9.90
2020,05,10,03,47,9.90
2020,05,10,03,48,10.00
2020,05,10,03,49,10.00
2020,05,10,03,50,10.00
2020,05,10,03,51,10.00
2020,05,10,03,52,10.00
2020,05,10,03,53,10.00
2020,05,10,03,54,10.00
2020,05,10,03,55,10.00
2020,05,10,03,56,10.00
2020,05,10,03,57,10.00
2020,05,10,03,58,10.00
2020,05,10,03,59,10.00
2020,05,10,04,00,9.90
2020,05,10,04,01,9.90
2020,05,10,04,02,9.90
2020,05,10,04,03,9.90
2020,05,10,04,04,9.90
2020,05,10,04,05,9.90
2020,05,10,04,06,9.80
2020,05,10,04,07,9.80
2020,05,10,04,08,9.80
2020,05,10,04,09,9.70
2020,05,10,04,10,9.70
2020,05,10,04,11,9.70
2020,05,10,04,12,9.60
2020,05,10,04,13,9.60
2020,05,10,04,14,9.60
2020,05,10,04,15,9.60
2020,05,10,04,16,9.60
2020,05,10,04,17,9.60
2020,05,10,04,18,9.60
2020,05,10,04,19,9.60
2020,05,10,04,20,9.60
2020,05,10,04,21,9.60
2020,05,10,04,22,9.60
2020,05,10,04,23,9.60
2020,05,10,04,24,9.60
2020,05,10,04,25,9.60
2020,05,10,04,26,9.60
2020,05,10,04,27,9.60
2020,05,10,04,28,9.60
2020,05,10,04,29,9.60
2020,05,10,04,30,9.60
2020,05,10,04,31,9.60
2020,05,10,04,32,9.60
2020,05,10,04,33,9.60
2020,05,10,04,34,9.60
2020,05,10,04,35,9.60
2020,05,10,04,36,9.60
2020,05,10,04,37,9.60
2020,05,10,04,38,9.60
2020,05,10,04,39,9.60
2020,05,10,04,40,9.60
2020,05,10,04,41,9.60
2020,05,10,04,42,9.60
2020,05,10,04,43,9.60
2020,05,10,04,44,9.60
2020,05,10,04,45,9.60
2020,05,10,04,46,9.60
2020,05,10,04,47,9.60
2020,05,10,04,48,9.60
2020,05,10,04,49,9.60
2020,05,10,04,50,9.60
2020,05,10,04,51,9.50
2020,05,10,04,52,9.50
2020,05,10,04,53,9.40
2020,05,10,04,54,9.40
2020,05,10,04,55,9.30
2020,05,10,04,56,9.30
2020,05,10,04,57,9.30
2020,05,10,04,58,9.30
2020,05,10,04,59,9.30
2020,05,10,05,00,9.30
2020,05,10,05,01,9.20
2020,05,10,05,02,9.20
2020,05,10,05,03,9.20
2020,05,10,05,04,9.20
2020,05,10,05,05,9.20
2020,05,10,05,06,9.20
2020,05,10,05,07,9.20
2020,05,10,05,08,9.20
2020,05,10,05,09,9.20
2020,05,10,05,10,9.20
2020,05,10,05,11,9.10
2020,05,10,05,12,9.10
2020,05,10,05,13,9.10
2020,05,10,05,14,9.10
2020,05,10,05,15,9.10
2020,05,10,05,16,9.10
2020,05,10,05,17,9.10
2020,05,10,05,18,9.10
2020,05,10,05,19,9.10
2020,05,10,05,20,9.00
2020,05,10,05,21,9.10
2020,05,10,05,22,9.10
2020,05,10,05,23,9.10
2020,05,10,05,24,9.10
2020,05,10,05,25,9.10
2020,05,10,05,26,9.10
2020,05,10,05,27,9.10
2020,05,10,05,28,9.10
2020,05,10,05,29,9.10
2020,05,10,05,30,9.10
2020,05,10,05,31,9.10
2020,05,10,05,32,9.10
2020,05,10,05,33,9.10
2020,05,10,05,34,9.20
2020,05,10,05,35,9.20
2020,05,10,05,36,9.20
2020,05,10,05,37,9.20
2020,05,10,05,38,9.20
2020,05,10,05,39,9.20
2020,05,10,05,40,9.20
2020,05,10,05,41,9.30
2020,05,10,05,42,9.30
2020,05,10,05,43,9.30
2020,05,10,05,44,9.30
2020,05,10,05,45,9.30
2020,05,10,05,46,9.40
2020,05,10,05,47,9.50
2020,05,10,05,48,9.60
2020,05,10,05,49,9.80
2020,05,10,05,50,10.10
2020,05,10,05,51,10.20
2020,05,10,05,52,10.30
2020,05,10,05,53,10.50
2020,05,10,05,54,10.60
2020,05,10,05,55,10.80
2020,05,10,05,56,10.90
2020,05,10,05,57,11.10
2020,05,10,05,58,11.30
2020,05,10,05,59,11.40
2020,05,10,06,00,11.50
2020,05,10,06,01,11.60
2020,05,10,06,02,11.60
2020,05,10,06,03,11.70
2020,05,10,06,04,11.70
2020,05,10,06,05,11.80
2020,05,10,06,06,11.80
2020,05,10,06,07,11.80
2020,05,10,06,08,11.80
2020,05,10,06,09,11.80
2020,05,10,06,10,11.90
2020,05,10,06,11,11.90
2020,05,10,06,12,12.00
2020,05,10,06,13,12.10
2020,05,10,06,14,12.20
2020,05,10,06,15,12.30
2020,05,10,06,16,12.50
2020,05,10,06,17,12.70
2020,05,10,06,18,12.90
2020,05,10,06,19,13.00
2020,05,10,06,20,13.10
2020,05,10,06,21,13.20
2020,05,10,06,22,13.30
2020,05,10,06,23,13.40
2020,05,10,06,24,13.50
2020,05,10,06,25,13.60
2020,05,10,06,26,13.70
2020,05,10,06,27,13.80
2020,05,10,06,28,14.00
2020,05,10,06,29,14.10
2020,05,10,06,30,14.10
2020,05,10,06,31,14.20
2020,05,10,06,32,14.30
2020,05,10,06,33,14.40
2020,05,10,06,34,14.40
2020,05,10,06,35,14.40
2020,05,10,06,36,14.50
2020,05,10,06,37,14.50
2020,05,10,06,38,14.60
2020,05,10,06,39,14.70
2020,05,10,06,40,14.90
2020,05,10,06,41,15.00
2020,05,10,06,42,15.20
2020,05,10,06,43,15.20
2020,05,10,06,44,15.30
2020,05,10,06,45,15.40
2020,05,10,06,46,15.50
2020,05,10,06,47,15.60
2020,05,10,06,48,15.70
2020,05,10,06,49,15.80
2020,05,10,06,50,15.90
2020,05,10,06,51,16.00
2020,05,10,06,52,16.00
2020,05,10,06,53,16.00
2020,05,10,06,54,16.10
2020,05,10,06,55,16.10
2020,05,10,06,56,16.10
2020,05,10,06,57,16.10
2020,05,10,06,58,16.10
2020,05,10,06,59,16.10
2020,05,10,07,00,16.20
2020,05,10,07,01,16.20
2020,05,10,07,02,16.30
2020,05,10,07,03,16.30
2020,05,10,07,04,16.40
2020,05,10,07,05,16.50
2020,05,10,07,06,16.60
2020,05,10,07,07,16.70
2020,05,10,07,08,16.80
2020,05,10,07,09,16.90
2020,05,10,07,10,17.00
2020,05,10,07,11,17.10
2020,05,10,07,12,17.20
2020,05,10,07,13,17.30
2020,05,10,07,14,17.40
2020,05,10,07,15,17.50
2020,05,10,07,16,17.60
2020,05,10,07,17,17.70
2020,05,10,07,18,17.70
2020,05,10,07,19,17.80
2020,05,10,07,20,17.80
2020,05,10,07,21,17.90
2020,05,10,07,22,17.90
2020,05,10,07,23,18.00
2020,05,10,07,24,18.00
2020,05,10,07,25,18.10
2020,05,10,07,26,18.10
2020,05,10,07,27,18.20
2020,05,10,07,28,18.20
2020,05,10,07,29,18.30
2020,05,10,07,30,18.30
2020,05,10,07,31,18.40
2020,05,10,07,32,18.40
2020,05,10,07,33,18.40
2020,05,10,07,34,18.40
2020,05,10,07,35,18.40
2020,05,10,07,36,18.40
2020,05,10,07,37,18.40
2020,05,10,07,38,18.40
2020,05,10,07,39,18.40
2020,05,10,07,40,18.40
2020,05,10,07,41,18.50
2020,05,10,07,42,18.50
2020,05,10,07,43,18.50
2020,05,10,07,44,18.50
2020,05,10,07,45,18.50
2020,05,10,07,46,18.60
2020,05,10,07,47,18.60
2020,05,10,07,48,18.60
2020,05,10,07,49,18.60
2020,05,10,07,50,18.60
2020,05,10,07,51,18.60
2020,05,10,07,52,18.60
2020,05,10,07,53,18.60
2020,05,10,07,54,18.70
2020,05,10,07,55,18.60
2020,05,10,07,56,18.70
2020,05,10,07,57,18.70
2020,05,10,07,58,18.70
2020,05,10,07,59,18.80
2020,05,10,08,00,18.80
2020,05,10,08,01,18.80
2020,05,10,08,02,18.80
2020,05,10,08,03,18.90
2020,05,10,08,04,18.90
2020,05,10,08,05,18.90
2020,05,10,08,06,19.00
2020,05,10,08,07,19.00
2020,05,10,08,08,19.00
2020,05,10,08,09,19.10
2020,05,10,08,10,19.10
2020,05,10,08,11,19.20
2020,05,10,08,12,19.20
2020,05,10,08,13,19.20
2020,05,10,08,14,19.30
2020,05,10,08,15,19.30
2020,05,10,08,16,19.40
2020,05,10,08,17,19.40
2020,05,10,08,18,19.40
2020,05,10,08,19,19.40
2020,05,10,08,20,19.50
2020,05,10,08,21,19.50
2020,05,10,08,22,19.60
2020,05,10,08,23,19.60
2020,05,10,08,24,19.70
2020,05,10,08,25,19.70
2020,05,10,08,26,19.80
2020,05,10,08,27,19.90
2020,05,10,08,28,19.90
2020,05,10,08,29,20.00
2020,05,10,08,30,20.10
2020,05,10,08,31,20.10
2020,05,10,08,32,20.20
2020,05,10,08,33,20.20
2020,05,10,08,34,20.30
2020,05,10,08,35,20.40
2020,05,10,08,36,20.40
2020,05,10,08,37,20.50
2020,05,10,08,38,20.50
2020,05,10,08,39,20.60
2020,05,10,08,40,20.70
2020,05,10,08,41,20.70
2020,05,10,08,42,20.70
2020,05,10,08,43,20.70
2020,05,10,08,44,20.60
2020,05,10,08,45,20.60
2020,05,10,08,46,20.60
2020,05,10,08,47,20.60
2020,05,10,08,48,20.70
2020,05,10,08,49,20.70
2020,05,10,08,50,20.80
2020,05,10,08,51,20.80
2020,05,10,08,52,20.80
2020,05,10,08,53,20.80
2020,05,10,08,54,20.90
2020,05,10,08,55,20.90
2020,05,10,08,56,21.00
2020,05,10,08,57,21.10
2020,05,10,08,58,21.20
2020,05,10,08,59,21.20
2020,05,10,09,00,21.30
2020,05,10,09,01,21.30
2020,05,10,09,02,21.40
2020,05,10,09,03,21.50
2020,05,10,09,04,21.50
2020,05,10,09,05,21.60
2020,05,10,09,06,21.60
2020,05,10,09,07,21.70
2020,05,10,09,08,21.70
2020,05,10,09,09,21.70
2020,05,10,09,10,21.80
2020,05,10,09,11,21.80
2020,05,10,09,12,21.90
2020,05,10,09,13,21.90
2020,05,10,09,14,21.90
2020,05,10,09,15,21.90
2020,05,10,09,16,21.90
2020,05,10,09,17,22.00
2020,05,10,09,18,22.00
2020,05,10,09,19,22.10
2020,05,10,09,20,22.10
2020,05,10,09,21,22.10
2020,05,10,09,22,22.10
2020,05,10,09,23,22.20
2020,05,10,09,24,22.20
2020,05,10,09,25,22.20
2020,05,10,09,26,22.20
2020,05,10,09,27,22.20
2020,05,10,09,28,22.20
2020,05,10,09,29,22.20
2020,05,10,09,30,22.20
2020,05,10,09,31,22.20
2020,05,10,09,32,22.10
2020,05,10,09,33,22.10
2020,05,10,09,34,22.10
2020,05,10,09,35,22.10
2020,05,10,09,36,22.00
2020,05,10,09,37,22.10
2020,05,10,09,38,22.10
2020,05,10,09,39,22.10
2020,05,10,09,40,22.20
2020,05,10,09,41,22.10
2020,05,10,09,42,22.10
2020,05,10,09,43,22.00
2020,05,10,09,44,22.00
2020,05,10,09,45,21.90
2020,05,10,09,46,21.90
2020,05,10,09,47,21.90
2020,05,10,09,48,22.00
2020,05,10,09,49,22.00
2020,05,10,09,50,22.00
2020,05,10,09,51,22.00
2020,05,10,09,52,22.10
2020,05,10,09,53,22.10
2020,05,10,09,54,22.10
2020,05,10,09,55,22.20
2020,05,10,09,56,22.30
2020,05,10,09,57,22.40
2020,05,10,09,58,22.40
2020,05,10,09,59,22.40
2020,05,10,10,00,22.40
2020,05,10,10,01,22.50
2020,05,10,10,02,22.50
2020,05,10,10,03,22.60
2020,05,10,10,04,22.60
2020,05,10,10,05,22.60
2020,05,10,10,06,22.60
2020,05,10,10,07,22.60
2020,05,10,10,08,22.70
2020,05,10,10,09,22.80
2020,05,10,10,10,22.80
2020,05,10,10,11,22.90
2020,05,10,10,12,22.90
2020,05,10,10,13,22.90
2020,05,10,10,14,22.90
2020,05,10,10,15,22.90
2020,05,10,10,16,22.90
2020,05,10,10,17,22.90
2020,05,10,10,18,22.90
2020,05,10,10,19,23.00
2020,05,10,10,20,23.00
2020,05,10,10,21,23.10
2020,05,10,10,22,23.10
2020,05,10,10,23,23.20
2020,05,10,10,24,23.30
2020,05,10,10,25,23.30
2020,05,10,10,26,23.40
2020,05,10,10,27,23.50
2020,05,10,10,28,23.60
2020,05,10,10,29,23.60
2020,05,10,10,30,23.60
2020,05,10,10,31,23.60
2020,05,10,10,32,23.60
2020,05,10,10,33,23.60
2020,05,10,10,34,23.70
2020,05,10,10,35,23.70
2020,05,10,10,36,23.80
2020,05,10,10,37,23.80
2020,05,10,10,38,23.80
2020,05,10,10,39,23.90
2020,05,10,10,40,24.00
2020,05,10,10,41,24.10
2020,05,10,10,42,24.10
2020,05,10,10,43,24.20
2020,05,10,10,44,24.20
2020,05,10,10,45,24.20
2020,05,10,10,46,24.20
2020,05,10,10,47,24.30
2020,05,10,10,48,24.40
2020,05,10,10,49,24.40
2020,05,10,10,50,24.40
2020,05,10,10,51,24.40
2020,05,10,10,52,24.40
2020,05,10,10,53,24.40
2020,05,10,10,54,24.40
2020,05,10,10,55,24.40
2020,05,10,10,56,24.40
2020,05,10,10,57,24.40
2020,05,10,10,58,24.40
2020,05,10,10,59,24.40
2020,05,10,11,00,24.40
2020,05,10,11,01,24.40
2020,05,10,11,02,24.30
2020,05,10,11,03,24.30
2020,05,10,11,04,24.20
2020,05,10,11,05,24.20
2020,05,10,11,06,24.20
2020,05,10,11,07,24.20
2020,05,10,11,08,24.20
2020,05,10,11,09,24.20
2020,05,10,11,10,24.30
2020,05,10,11,11,24.30
2020,05,10,11,12,24.30
2020,05,10,11,13,24.30
2020,05,10,11,14,24.30
2020,05,10,11,15,24.30
2020,05,10,11,16,24.40
2020,05,10,11,17,24.40
2020,05,10,11,18,24.40
2020,05,10,11,19,24.30
2020,05,10,11,20,24.30
2020,05,10,11,21,24.40
2020,05,10,11,22,24.40
2020,05,10,11,23,24.40
2020,05,10,11,24,24.50
2020,05,10,11,25,24.50
2020,05,10,11,26,24.50
2020,05,10,11,27,24.60
2020,05,10,11,28,24.60
2020,05,10,11,29,24.70
2020,05,10,11,30,24.70
2020,05,10,11,31,24.70
2020,05,10,11,32,24.80
2020,05,10,11,33,24.80
2020,05,10,11,34,24.80
2020,05,10,11,35,24.90
2020,05,10,11,36,24.90
2020,05,10,11,37,24.90
2020,05,10,11,38,24.90
2020,05,10,11,39,24.90
2020,05,10,11,40,24.90
2020,05,10,11,41,24.80
2020,05,10,11,42,24.80
2020,05,10,11,43,24.80
2020,05,10,11,44,24.90
2020,05,10,11,45,24.90
2020,05,10,11,46,25.00
2020,05,10,11,47,24.90
2020,05,10,11,48,24.90
2020,05,10,11,49,24.90
2020,05,10,11,50,24.80
2020,05,10,11,51,24.80
2020,05,10,11,52,24.80
2020,05,10,11,53,24.70
2020,05,10,11,54,24.70
2020,05,10,11,55,24.70
2020,05,10,11,56,24.60
2020,05,10,11,57,24.60
2020,05,10,11,58,24.60
2020,05,10,11,59,24.60
2020,05,10,12,00,24.70
2020,05,10,12,01,24.80
2020,05,10,12,02,24.90
2020,05,10,12,03,25.00
2020,05,10,12,04,25.00
2020,05,10,12,05,25.10
2020,05,10,12,06,25.20
2020,05,10,12,07,25.20
2020,05,10,12,08,25.30
2020,05,10,12,09,25.40
2020,05,10,12,10,25.40
2020,05,10,12,11,25.50
2020,05,10,12,12,25.60
2020,05,10,12,13,25.70
2020,05,10,12,14,25.70
2020,05,10,12,15,25.70
2020,05,10,12,16,25.80
2020,05,10,12,17,25.80
2020,05,10,12,18,25.90
2020,05,10,12,19,25.90
2020,05,10,12,20,25.90
2020,05,10,12,21,25.90
2020,05,10,12,22,25.80
2020,05,10,12,23,25.80
2020,05,10,12,24,25.80
2020,05,10,12,25,25.70
2020,05,10,12,26,25.70
2020,05,10,12,27,25.70
2020,05,10,12,28,25.70
2020,05,10,12,29,25.80
2020,05,10,12,30,25.80
2020,05,10,12,31,25.80
2020,05,10,12,32,25.80
2020,05,10,12,33,25.80
2020,05,10,12,34,25.80
2020,05,10,12,35,25.80
2020,05,10,12,36,25.80
2020,05,10,12,37,25.80
2020,05,10,12,38,25.80
2020,05,10,12,39,25.80
2020,05,10,12,40,25.80
2020,05,10,12,41,25.90
2020,05,10,12,42,25.90
2020,05,10,12,43,26.00
2020,05,10,12,44,26.00
2020,05,10,12,45,26.10
2020,05,10,12,46,26.20
2020,05,10,12,47,26.30
2020,05,10,12,48,26.30
2020,05,10,12,49,26.40
2020,05,10,12,50,26.40
2020,05,10,12,51,26.50
2020,05,10,12,52,26.50
2020,05,10,12,53,26.40
2020,05,10,12,54,26.40
2020,05,10,12,55,26.50
2020,05,10,12,56,26.50
2020,05,10,12,57,26.60
2020,05,10,12,58,26.60
2020,05,10,12,59,26.60
2020,05,10,13,00,26.50
2020,05,10,13,01,26.40
2020,05,10,13,02,26.40
2020,05,10,13,03,26.40
2020,05,10,13,04,26.40
2020,05,10,13,05,26.40
2020,05,10,13,06,26.50
2020,05,10,13,07,26.60
2020,05,10,13,08,26.70
2020,05,10,13,09,26.80
2020,05,10,13,10,26.80
2020,05,10,13,11,26.90
2020,05,10,13,12,26.90
2020,05,10,13,13,27.00
2020,05,10,13,14,27.00
2020,05,10,13,15,27.10
2020,05,10,13,16,27.10
2020,05,10,13,17,27.10
2020,05,10,13,18,27.10
2020,05,10,13,19,27.10
2020,05,10,13,20,27.10
2020,05,10,13,21,27.10
2020,05,10,13,22,27.10
2020,05,10,13,23,27.00
2020,05,10,13,24,26.90
2020,05,10,13,25,26.80
2020,05,10,13,26,26.70
2020,05,10,13,27,26.70
2020,05,10,13,28,26.70
2020,05,10,13,29,26.60
2020,05,10,13,30,26.60
2020,05,10,13,31,26.50
2020,05,10,13,32,26.40
2020,05,10,13,33,26.40
2020,05,10,13,34,26.40
2020,05,10,13,35,26.40
2020,05,10,13,36,26.40
2020,05,10,13,37,26.40
2020,05,10,13,38,26.50
2020,05,10,13,39,26.50
2020,05,10,13,40,26.60
2020,05,10,13,41,26.50
2020,05,10,13,42,26.50
2020,05,10,13,43,26.40
2020,05,10,13,44,26.40
2020,05,10,13,45,26.40
2020,05,10,13,46,26.40
2020,05,10,13,47,26.40
2020,05,10,13,48,26.40
2020,05,10,13,49,26.40
2020,05,10,13,50,26.40
2020,05,10,13,51,26.40
2020,05,10,13,52,26.50
2020,05,10,13,53,26.50
2020,05,10,13,54,26.60
2020,05,10,13,55,26.60
2020,05,10,13,56,26.70
2020,05,10,13,57,26.70
2020,05,10,13,58,26.70
2020,05,10,13,59,26.70
2020,05,10,14,00,26.70
2020,05,10,14,01,26.70
2020,05,10,14,02,26.80
2020,05,10,14,03,26.80
2020,05,10,14,04,26.90
2020,05,10,14,05,26.90
2020,05,10,14,06,26.90
2020,05,10,14,07,26.90
2020,05,10,14,08,26.80
2020,05,10,14,09,26.80
2020,05,10,14,10,26.90
2020,05,10,14,11,26.90
2020,05,10,14,12,27.00
2020,05,10,14,13,27.10
2020,05,10,14,14,27.10
2020,05,10,14,15,27.10
2020,05,10,14,16,27.10
2020,05,10,14,17,27.10
2020,05,10,14,18,27.10
2020,05,10,14,19,27.10
2020,05,10,14,20,27.10
2020,05,10,14,21,27.20
2020,05,10,14,22,27.30
2020,05,10,14,23,27.30
2020,05,10,14,24,27.40
2020,05,10,14,25,27.40
2020,05,10,14,26,27.50
2020,05,10,14,27,27.60
2020,05,10,14,28,27.60
2020,05,10,14,29,27.60
2020,05,10,14,30,27.50
2020,05,10,14,31,27.40
2020,05,10,14,32,27.30
2020,05,10,14,33,27.30
2020,05,10,14,34,27.40
2020,05,10,14,35,27.40
2020,05,10,14,36,27.50
2020,05,10,14,37,27.60
2020,05,10,14,38,27.60
2020,05,10,14,39,27.70
2020,05,10,14,40,27.70
2020,05,10,14,41,27.70
2020,05,10,14,42,27.80
2020,05,10,14,43,27.80
2020,05,10,14,44,27.70
2020,05,10,14,45,27.70
2020,05,10,14,46,27.70
2020,05,10,14,47,27.60
2020,05,10,14,48,27.50
2020,05,10,14,49,27.40
2020,05,10,14,50,27.40
2020,05,10,14,51,27.40
2020,05,10,14,52,27.40
2020,05,10,14,53,27.40
2020,05,10,14,54,27.30
2020,05,10,14,55,27.30
2020,05,10,14,56,27.30
2020,05,10,14,57,27.20
2020,05,10,14,58,27.20
2020,05,10,14,59,27.20
2020,05,10,15,00,27.20
2020,05,10,15,01,27.20
2020,05,10,15,02,27.20
2020,05,10,15,03,27.30
2020,05,10,15,04,27.30
2020,05,10,15,05,27.30
2020,05,10,15,06,27.30
2020,05,10,15,07,27.30
2020,05,10,15,08,27.30
2020,05,10,15,09,27.30
2020,05,10,15,10,27.20
2020,05,10,15,11,27.20
2020,05,10,15,12,27.20
2020,05,10,15,13,27.20
2020,05,10,15,14,27.20
2020,05,10,15,15,27.30
2020,05,10,15,16,27.30
2020,05,10,15,17,27.30
2020,05,10,15,18,27.40
2020,05,10,15,19,27.40
2020,05,10,15,20,27.40
2020,05,10,15,21,27.40
2020,05,10,15,22,27.40
2020,05,10,15,23,27.40
2020,05,10,15,24,27.40
2020,05,10,15,25,27.40
2020,05,10,15,26,27.50
2020,05,10,15,27,27.50
2020,05,10,15,28,27.60
2020,05,10,15,29,27.60
2020,05,10,15,30,27.50
2020,05,10,15,31,27.50
2020,05,10,15,32,27.40
2020,05,10,15,33,27.40
2020,05,10,15,34,27.40
2020,05,10,15,35,27.50
2020,05,10,15,36,27.50
2020,05,10,15,37,27.60
2020,05,10,15,38,27.60
2020,05,10,15,39,27.50
2020,05,10,15,40,27.40
2020,05,10,15,41,27.40
2020,05,10,15,42,27.50
2020,05,10,15,43,27.50
2020,05,10,15,44,27.60
2020,05,10,15,45,27.60
2020,05,10,15,46,27.60
2020,05,10,15,47,27.60
2020,05,10,15,48,27.60
2020,05,10,15,49,27.60
2020,05,10,15,50,27.60
2020,05,10,15,51,27.60
2020,05,10,15,52,27.70
2020,05,10,15,53,27.70
2020,05,10,15,54,27.60
2020,05,10,15,55,27.70
2020,05,10,15,56,27.60
2020,05,10,15,57,27.60
2020,05,10,15,58,27.60
2020,05,10,15,59,27.60
2020,05,10,16,00,27.60
2020,05,10,16,01,27.60
2020,05,10,16,02,27.50
2020,05,10,16,03,27.50
2020,05,10,16,04,27.40
2020,05,10,16,05,27.30
2020,05,10,16,06,27.30
2020,05,10,16,07,27.40
2020,05,10,16,08,27.40
2020,05,10,16,09,27.40
2020,05,10,16,10,27.40
2020,05,10,16,11,27.30
2020,05,10,16,12,27.30
2020,05,10,16,13,27.30
2020,05,10,16,14,27.30
2020,05,10,16,15,27.30
2020,05,10,16,16,27.40
2020,05,10,16,17,27.50
2020,05,10,16,18,27.50
2020,05,10,16,19,27.60
2020,05,10,16,20,27.60
2020,05,10,16,21,27.60
2020,05,10,16,22,27.60
2020,05,10,16,23,27.60
2020,05,10,16,24,27.60
2020,05,10,16,25,27.50
2020,05,10,16,26,27.50
2020,05,10,16,27,27.50
2020,05,10,16,28,27.50
2020,05,10,16,29,27.50
2020,05,10,16,30,27.60
2020,05,10,16,31,27.60
2020,05,10,16,32,27.60
2020,05,10,16,33,27.60
2020,05,10,16,34,27.60
2020,05,10,16,35,27.60
2020,05,10,16,36,27.70
2020,05,10,16,37,27.70
2020,05,10,16,38,27.70
2020,05,10,16,39,27.80
2020,05,10,16,40,27.80
2020,05,10,16,41,27.80
2020,05,10,16,42,27.80
2020,05,10,16,43,27.80
2020,05,10,16,44,27.80
2020,05,10,16,45,27.80
2020,05,10,16,46,27.80
2020,05,10,16,47,27.80
2020,05,10,16,48,27.70
2020,05,10,16,49,27.70
2020,05,10,16,50,27.70
2020,05,10,16,51,27.70
2020,05,10,16,52,27.70
2020,05,10,16,53,27.70
2020,05,10,16,54,27.60
2020,05,10,16,55,27.60
2020,05,10,16,56,27.60
2020,05,10,16,57,27.60
2020,05,10,16,58,27.60
2020,05,10,16,59,27.60
2020,05,10,17,00,27.70
2020,05,10,17,01,27.60
2020,05,10,17,02,27.70
2020,05,10,17,03,27.70
2020,05,10,17,04,27.70
2020,05,10,17,05,27.70
2020,05,10,17,06,27.70
2020,05,10,17,07,27.80
2020,05,10,17,08,27.80
2020,05,10,17,09,27.70
2020,05,10,17,10,27.70
2020,05,10,17,11,27.70
2020,05,10,17,12,27.70
2020,05,10,17,13,27.70
2020,05,10,17,14,27.70
2020,05,10,17,15,27.60
2020,05,10,17,16,27.60
2020,05,10,17,17,27.60
2020,05,10,17,18,27.60
2020,05,10,17,19,27.60
2020,05,10,17,20,27.60
2020,05,10,17,21,27.60
2020,05,10,17,22,27.60
2020,05,10,17,23,27.60
2020,05,10,17,24,27.60
2020,05,10,17,25,27.60